Time,TemperatureF,DewpointF,PressureIn,WindDirection,WindDirectionDegrees,WindSpeedMPH,WindSpeedGustMPH,Humidity,HourlyPrecipIn,Conditions,Clouds,dailyrainin,SoftwareType,DateUTC
2013-05-14 00:01:00,42.1,11.3,28.35,SE,142,7.2,10.4,28,0.00,CLR,OVC,0.00,WeatherDisplay:10.37,2013-05-14 04:01:00,
2013-05-14 00:06:00,41.9,11.1,28.35,SSE,159,4.5,8.1,28,0.00,CLR,OVC,0.00,WeatherDisplay:10.37,2013-05-14 04:06:00,
2013-05-14 00:11:00,41.9,11.1,28.35,SSW,192,5.8,10.4,28,0.00,CLR,OVC,0.00,WeatherDisplay:10.37,2013-05-14 04:11:00,
2013-05-14 00:16:00,41.7,11.0,28.35,South,178,7.6,8.1,28,0.00,CLR,OVC,0.00,WeatherDisplay:10.37,2013-05-14 04:16:00,
2013-05-14 00:21:00,41.5,11.6,28.35,SSW,198,8.0,12.7,29,0.00,CLR,OVC,0.00,WeatherDisplay:10.37,2013-05-14 04:21:00,
2013-05-14 00:26:00,41.4,11.4,28.35,SSE,161,7.2,8.1,29,0.00,CLR,OVC,0.00,WeatherDisplay:10.37,2013-05-14 04:26:00,
2013-05-14 00:31:00,41.4,11.4,28.35,South,172,7.2,12.7,29,0.00,CLR,OVC,0.00,WeatherDisplay:10.37,2013-05-14 04:31:00,
2013-05-14 00:36:00,41.2,11.3,28.32,SSW,196,5.4,6.9,29,0.00,CLR,OVC,0.00,WeatherDisplay:10.37,2013-05-14 04:36:00,
2013-05-14 00:41:00,41.2,11.3,28.32,South,183,7.2,9.2,29,0.00,CLR,OVC,0.00,WeatherDisplay:10.37,2013-05-14 04:41:00,
2013-05-14 00:46:00,41.2,11.3,28.32,SE,140,7.6,9.2,29,0.00,CLR,OVC,0.00,WeatherDisplay:10.37,2013-05-14 04:46:00,
2013-05-14 00:51:00,41.2,11.3,28.32,South,187,7.2,7.2,29,0.00,CLR,OVC,0.00,WeatherDisplay:10.37,2013-05-14 04:51:00,
2013-05-14 00:56:00,41.2,11.3,28.32,SSE,150,6.3,10.4,29,0.00,CLR,OVC,0.00,WeatherDisplay:10.37,2013-05-14 04:56:00,
2013-05-14 01:01:00,41.2,11.3,28.32,SSE,160,7.6,10.4,29,0.00,CLR,OVC,0.00,WeatherDisplay:10.37,2013-05-14 05:01:00,
2013-05-14 01:06:00,41.0,11.1,28.32,SSE,156,4.0,8.3,29,0.00,CLR,OVC,0.00,WeatherDisplay:10.37,2013-05-14 05:06:00,
2013-05-14 01:11:00,41.0,11.1,28.32,SW,218,8.3,10.4,29,0.00,CLR,OVC,0.00,WeatherDisplay:10.37,2013-05-14 05:11:00,
2013-05-14 01:16:00,41.0,11.1,28.32,SSE,162,9.2,12.7,29,0.00,CLR,OVC,0.00,WeatherDisplay:10.37,2013-05-14 05:16:00,
2013-05-14 01:21:00,40.8,11.0,28.32,SSE,165,4.9,5.8,29,0.00,CLR,OVC,0.00,WeatherDisplay:10.37,2013-05-14 05:21:00,
2013-05-14 01:26:00,40.8,11.0,28.32,SSE,166,4.9,10.4,29,0.00,CLR,OVC,0.00,WeatherDisplay:10.37,2013-05-14 05:26:00,
2013-05-14 01:31:00,40.8,11.0,28.32,SSE,153,8.0,10.4,29,0.00,CLR,OVC,0.00,WeatherDisplay:10.37,2013-05-14 05:31:00,
2013-05-14 01:36:00,40.6,10.8,28.29,South,181,5.8,10.5,29,0.00,CLR,OVC,0.00,WeatherDisplay:10.37,2013-05-14 05:36:00,
2013-05-14 01:41:00,40.6,10.8,28.29,SE,130,4.9,10.4,29,0.00,CLR,OVC,0.00,WeatherDisplay:10.37,2013-05-14 05:41:00,
2013-05-14 01:46:00,40.6,10.8,28.29,SSE,156,8.0,10.4,29,0.00,CLR,OVC,0.00,WeatherDisplay:10.37,2013-05-14 05:46:00,
2013-05-14 01:51:00,40.6,10.8,28.29,SE,146,5.8,5.8,29,0.00,CLR,OVC,0.00,WeatherDisplay:10.37,2013-05-14 05:51:00,
2013-05-14 01:56:00,40.6,10.8,28.29,South,184,5.4,8.1,29,0.00,CLR,OVC,0.00,WeatherDisplay:10.37,2013-05-14 05:56:00,
2013-05-14 02:01:00,40.6,10.8,28.29,SSW,210,7.2,8.1,29,0.00,CLR,OVC,0.00,WeatherDisplay:10.37,2013-05-14 06:01:00,
2013-05-14 02:06:00,40.6,10.8,28.29,SSE,148,9.6,15.0,29,0.00,CLR,OVC,0.00,WeatherDisplay:10.37,2013-05-14 06:06:00,
2013-05-14 02:11:00,40.6,10.8,28.29,South,179,7.2,12.7,29,0.00,CLR,OVC,0.00,WeatherDisplay:10.37,2013-05-14 06:11:00,
2013-05-14 02:16:00,40.6,10.8,28.29,South,187,5.8,11.5,29,0.00,CLR,OVC,0.00,WeatherDisplay:10.37,2013-05-14 06:16:00,
2013-05-14 02:21:00,40.6,10.8,28.29,SSW,195,7.2,12.7,29,0.00,CLR,OVC,0.00,WeatherDisplay:10.37,2013-05-14 06:21:00,
2013-05-14 02:26:00,40.6,10.8,28.29,SSW,196,10.9,15.4,29,0.00,CLR,OVC,0.00,WeatherDisplay:10.37,2013-05-14 06:26:00,
2013-05-14 02:31:00,40.6,11.6,28.29,South,177,8.3,10.4,30,0.00,CLR,OVC,0.00,WeatherDisplay:10.37,2013-05-14 06:31:00,
2013-05-14 02:36:00,40.3,12.0,28.26,SE,124,5.4,5.8,31,0.00,CLR,OVC,0.00,WeatherDisplay:10.37,2013-05-14 06:36:00,
2013-05-14 02:41:00,40.1,12.6,28.26,SSE,153,5.4,10.4,32,0.00,CLR,OVC,0.00,WeatherDisplay:10.37,2013-05-14 06:41:00,
2013-05-14 02:46:00,40.3,13.4,28.26,South,172,8.0,11.5,33,0.00,CLR,OVC,0.00,WeatherDisplay:10.37,2013-05-14 06:46:00,
2013-05-14 02:51:00,40.3,13.4,28.26,SSW,200,8.3,11.5,33,0.00,CLR,OVC,0.00,WeatherDisplay:10.37,2013-05-14 06:51:00,
2013-05-14 02:56:00,40.1,13.9,28.26,SSW,198,4.0,8.1,34,0.00,CLR,OVC,0.00,WeatherDisplay:10.37,2013-05-14 06:56:00,
2013-05-14 03:01:00,39.9,15.1,28.26,SSE,158,8.7,8.7,36,0.00,CLR,OVC,0.00,WeatherDisplay:10.37,2013-05-14 07:01:00,
2013-05-14 03:06:00,39.9,16.9,28.26,SSW,194,4.9,9.2,39,0.00,CLR,OVC,0.00,WeatherDisplay:10.37,2013-05-14 07:06:00,
2013-05-14 03:11:00,39.7,16.8,28.26,SE,130,6.3,12.7,39,0.00,CLR,OVC,0.00,WeatherDisplay:10.37,2013-05-14 07:11:00,
2013-05-14 03:16:00,39.7,17.4,28.26,South,182,4.9,5.8,40,0.00,CLR,OVC,0.00,WeatherDisplay:10.37,2013-05-14 07:16:00,
2013-05-14 03:21:00,39.7,17.4,28.26,South,179,4.5,9.2,40,0.00,CLR,OVC,0.00,WeatherDisplay:10.37,2013-05-14 07:21:00,
2013-05-14 03:26:00,39.9,16.9,28.26,SE,140,6.3,8.1,39,0.00,CLR,OVC,0.00,WeatherDisplay:10.37,2013-05-14 07:26:00,
2013-05-14 03:31:00,40.1,17.1,28.26,South,191,7.6,8.1,39,0.00,CLR,OVC,0.00,WeatherDisplay:10.37,2013-05-14 07:31:00,
2013-05-14 03:36:00,40.3,17.3,28.26,SE,137,4.9,8.1,39,0.00,CLR,OVC,0.00,WeatherDisplay:10.37,2013-05-14 07:36:00,
2013-05-14 03:41:00,40.3,17.3,28.26,South,190,8.0,8.1,39,0.00,CLR,OVC,0.00,WeatherDisplay:10.37,2013-05-14 07:41:00,
2013-05-14 03:46:00,40.3,17.3,28.26,SSW,196,6.7,8.3,39,0.00,CLR,OVC,0.00,WeatherDisplay:10.37,2013-05-14 07:46:00,
2013-05-14 03:51:00,40.1,17.7,28.26,SSE,160,5.4,8.1,40,0.00,CLR,OVC,0.00,WeatherDisplay:10.37,2013-05-14 07:51:00,
2013-05-14 03:56:00,39.7,18.5,28.26,South,184,4.9,6.3,42,0.00,CLR,OVC,0.00,WeatherDisplay:10.37,2013-05-14 07:56:00,
2013-05-14 04:01:00,39.6,19.9,28.26,South,170,4.5,5.8,45,0.00,CLR,OVC,0.00,WeatherDisplay:10.37,2013-05-14 08:01:00,
2013-05-14 04:06:00,39.4,22.7,28.26,South,172,4.9,5.8,51,0.00,CLR,OVC,0.00,WeatherDisplay:10.37,2013-05-14 08:06:00,
2013-05-14 04:11:00,39.0,24.2,28.26,SE,133,4.5,8.1,55,0.00,CLR,OVC,0.00,WeatherDisplay:10.37,2013-05-14 08:11:00,
2013-05-14 04:16:00,39.0,25.1,28.26,SSE,151,6.3,9.2,57,0.00,CLR,OVC,0.00,WeatherDisplay:10.37,2013-05-14 08:16:00,
2013-05-14 04:21:00,39.0,25.1,28.26,South,181,6.3,6.9,57,0.00,CLR,OVC,0.00,WeatherDisplay:10.37,2013-05-14 08:21:00,
2013-05-14 04:26:00,38.8,25.7,28.26,South,169,4.5,5.8,59,0.00,CLR,OVC,0.00,WeatherDisplay:10.37,2013-05-14 08:26:00,
2013-05-14 04:31:00,38.5,26.2,28.26,South,177,3.1,3.5,61,0.00,CLR,OVC,0.00,WeatherDisplay:10.37,2013-05-14 08:31:00,
2013-05-14 04:36:00,38.5,27.0,28.26,SSE,163,3.1,6.9,63,0.00,CLR,OVC,0.00,WeatherDisplay:10.37,2013-05-14 08:36:00,
2013-05-14 04:41:00,38.3,26.8,28.26,South,182,4.9,8.1,63,0.00,CLR,OVC,0.00,WeatherDisplay:10.37,2013-05-14 08:41:00,
2013-05-14 04:46:00,38.3,25.6,28.26,South,173,7.6,9.2,60,0.00,CLR,OVC,0.00,WeatherDisplay:10.37,2013-05-14 08:46:00,
2013-05-14 04:51:00,38.3,25.6,28.26,South,184,2.2,4.6,60,0.00,CLR,OVC,0.00,WeatherDisplay:10.37,2013-05-14 08:51:00,
2013-05-14 04:56:00,37.9,25.3,28.26,SSE,157,3.1,4.0,60,0.00,CLR,OVC,0.00,WeatherDisplay:10.37,2013-05-14 08:56:00,
2013-05-14 05:01:00,37.8,25.1,28.26,SSE,165,4.9,5.8,60,0.00,CLR,OVC,0.00,WeatherDisplay:10.37,2013-05-14 09:01:00,
2013-05-14 05:06:00,37.6,24.9,28.26,SE,140,4.9,8.1,60,0.00,CLR,OVC,0.00,WeatherDisplay:10.37,2013-05-14 09:06:00,
2013-05-14 05:11:00,37.2,24.6,28.26,SE,131,3.6,5.8,60,0.00,CLR,OVC,0.00,WeatherDisplay:10.37,2013-05-14 09:11:00,
2013-05-14 05:16:00,37.0,24.4,28.26,SSE,163,2.7,3.5,60,0.00,CLR,OVC,0.00,WeatherDisplay:10.37,2013-05-14 09:16:00,
2013-05-14 05:21:00,36.9,25.0,28.26,South,187,2.7,4.9,62,0.00,CLR,OVC,0.00,WeatherDisplay:10.37,2013-05-14 09:21:00,
2013-05-14 05:26:00,36.5,24.7,28.26,SSW,206,3.1,5.8,62,0.00,CLR,OVC,0.00,WeatherDisplay:10.37,2013-05-14 09:26:00,
2013-05-14 05:31:00,36.3,24.5,28.26,SSE,154,3.6,3.6,62,0.00,CLR,OVC,0.00,WeatherDisplay:10.37,2013-05-14 09:31:00,
2013-05-14 05:36:00,36.1,23.6,28.23,SE,125,5.4,8.1,60,0.00,CLR,OVC,0.00,WeatherDisplay:10.37,2013-05-14 09:36:00,
2013-05-14 05:41:00,36.1,22.8,28.23,SSW,204,6.7,8.1,58,0.00,CLR,OVC,0.00,WeatherDisplay:10.37,2013-05-14 09:41:00,
2013-05-14 05:46:00,36.3,21.7,28.23,South,177,4.5,6.9,55,0.00,CLR,OVC,0.00,WeatherDisplay:10.37,2013-05-14 09:46:00,
2013-05-14 05:51:00,36.1,21.5,28.26,SSW,193,0.0,2.3,55,0.00,CLR,OVC,0.00,WeatherDisplay:10.37,2013-05-14 09:51:00,
2013-05-14 05:56:00,35.8,21.2,28.26,SSE,154,0.0,2.3,55,0.00,CLR,OVC,0.00,WeatherDisplay:10.37,2013-05-14 09:56:00,
2013-05-14 06:01:00,35.6,21.4,28.26,South,180,4.0,5.8,56,0.00,CLR,OVC,0.00,WeatherDisplay:10.37,2013-05-14 10:01:00,
2013-05-14 06:06:00,35.4,21.7,28.23,SE,137,3.1,5.8,57,0.00,CLR,OVC,0.00,WeatherDisplay:10.37,2013-05-14 10:06:00,
2013-05-14 06:11:00,35.2,21.9,28.23,SSW,199,0.0,3.5,58,0.00,CLR,OVC,0.00,WeatherDisplay:10.37,2013-05-14 10:11:00,
2013-05-14 06:16:00,35.2,21.9,28.23,South,181,0.0,0.0,58,0.00,CLR,OVC,0.00,WeatherDisplay:10.37,2013-05-14 10:16:00,
2013-05-14 06:21:00,35.2,21.1,28.23,SSE,157,3.1,5.8,56,0.00,CLR,OVC,0.00,WeatherDisplay:10.37,2013-05-14 10:21:00,
2013-05-14 06:26:00,35.4,21.3,28.23,South,181,0.0,3.5,56,0.00,CLR,OVC,0.00,WeatherDisplay:10.37,2013-05-14 10:26:00,
2013-05-14 06:31:00,35.2,20.7,28.23,SSE,163,0.0,3.5,55,0.00,CLR,OVC,0.00,WeatherDisplay:10.37,2013-05-14 10:31:00,
2013-05-14 06:36:00,35.1,20.9,28.23,South,184,2.2,3.5,56,0.00,CLR,OVC,0.00,WeatherDisplay:10.37,2013-05-14 10:36:00,
2013-05-14 06:41:00,35.1,20.9,28.23,South,180,0.0,0.0,56,0.00,CLR,OVC,0.00,WeatherDisplay:10.37,2013-05-14 10:41:00,
2013-05-14 06:46:00,35.1,20.9,28.23,South,181,0.0,3.5,56,0.00,CLR,OVC,0.00,WeatherDisplay:10.37,2013-05-14 10:46:00,
2013-05-14 06:51:00,35.2,21.1,28.23,South,184,0.0,3.5,56,0.00,CLR,OVC,0.00,WeatherDisplay:10.37,2013-05-14 10:51:00,
2013-05-14 06:56:00,35.4,21.3,28.23,SSE,153,0.0,3.6,56,0.00,CLR,OVC,0.00,WeatherDisplay:10.37,2013-05-14 10:56:00,
2013-05-14 07:01:00,35.4,20.4,28.23,South,169,2.2,2.3,54,0.00,CLR,OVC,0.00,WeatherDisplay:10.37,2013-05-14 11:01:00,
2013-05-14 07:06:00,35.6,21.0,28.23,SSE,158,0.0,3.5,55,0.00,CLR,OVC,0.00,WeatherDisplay:10.37,2013-05-14 11:06:00,
2013-05-14 07:11:00,35.6,20.1,28.23,South,180,0.0,3.5,53,0.00,CLR,OVC,0.00,WeatherDisplay:10.37,2013-05-14 11:11:00,
2013-05-14 07:16:00,35.8,20.3,28.23,SSE,163,4.0,5.8,53,0.00,CLR,OVC,0.00,WeatherDisplay:10.37,2013-05-14 11:16:00,
2013-05-14 07:21:00,35.8,19.9,28.23,SE,130,3.1,8.1,52,0.00,CLR,OVC,0.00,WeatherDisplay:10.37,2013-05-14 11:21:00,
2013-05-14 07:26:00,36.0,19.6,28.23,SSE,168,2.7,3.5,51,0.00,CLR,OVC,0.00,WeatherDisplay:10.37,2013-05-14 11:26:00,
2013-05-14 07:31:00,35.8,19.4,28.23,South,184,4.0,4.6,51,0.00,CLR,OVC,0.00,WeatherDisplay:10.37,2013-05-14 11:31:00,
2013-05-14 07:36:00,36.0,19.6,28.23,South,186,3.1,4.6,51,0.00,CLR,OVC,0.00,WeatherDisplay:10.37,2013-05-14 11:36:00,
2013-05-14 07:41:00,36.3,19.9,28.23,South,174,2.7,7.6,51,0.00,CLR,OVC,0.00,WeatherDisplay:10.37,2013-05-14 11:41:00,
2013-05-14 07:46:00,36.9,19.5,28.23,SSE,154,0.0,3.5,49,0.00,CLR,OVC,0.00,WeatherDisplay:10.37,2013-05-14 11:46:00,
2013-05-14 07:52:00,37.6,17.6,28.23,South,178,4.5,8.3,44,0.00,CLR,OVC,0.00,WeatherDisplay:10.37,2013-05-14 11:52:00,
2013-05-14 07:57:00,38.1,17.6,28.23,SE,146,3.6,3.6,43,0.00,CLR,OVC,0.00,WeatherDisplay:10.37,2013-05-14 11:57:00,
2013-05-14 08:02:00,38.3,17.2,28.23,South,171,5.4,8.1,42,0.00,CLR,OVC,0.00,WeatherDisplay:10.37,2013-05-14 12:02:00,
2013-05-14 08:07:00,38.5,17.3,28.23,SE,135,6.3,9.2,42,0.00,CLR,OVC,0.00,WeatherDisplay:10.37,2013-05-14 12:07:00,
2013-05-14 08:12:00,39.2,17.4,28.23,South,177,3.1,5.8,41,0.00,CLR,OVC,0.00,WeatherDisplay:10.37,2013-05-14 12:12:00,
2013-05-14 08:17:00,39.6,17.2,28.23,SSW,205,4.0,8.1,40,0.00,CLR,OVC,0.00,WeatherDisplay:10.37,2013-05-14 12:17:00,
2013-05-14 08:22:00,40.1,17.7,28.23,South,191,4.5,6.9,40,0.00,CLR,OVC,0.00,WeatherDisplay:10.37,2013-05-14 12:22:00,
2013-05-14 08:27:00,40.6,17.6,28.23,SSW,201,7.2,9.2,39,0.00,CLR,OVC,0.00,WeatherDisplay:10.37,2013-05-14 12:27:00,
2013-05-14 08:32:00,40.8,17.7,28.23,SSE,150,5.8,5.8,39,0.00,CLR,OVC,0.00,WeatherDisplay:10.37,2013-05-14 12:32:00,
2013-05-14 08:37:00,41.2,17.5,28.20,SSE,158,4.0,4.6,38,0.00,CLR,OVC,0.00,WeatherDisplay:10.37,2013-05-14 12:37:00,
2013-05-14 08:42:00,41.5,17.8,28.20,SSE,161,5.4,5.8,38,0.00,CLR,OVC,0.00,WeatherDisplay:10.37,2013-05-14 12:42:00,
2013-05-14 08:47:00,41.9,18.1,28.20,South,176,8.3,10.4,38,0.00,CLR,OVC,0.00,WeatherDisplay:10.37,2013-05-14 12:47:00,
2013-05-14 08:52:00,42.6,16.8,28.23,South,184,8.3,10.4,35,0.00,CLR,OVC,0.00,WeatherDisplay:10.37,2013-05-14 12:52:00,
2013-05-14 08:57:00,43.2,16.6,28.23,SSW,196,5.4,8.1,34,0.00,CLR,OVC,0.00,WeatherDisplay:10.37,2013-05-14 12:57:00,
2013-05-14 09:02:00,44.2,17.6,28.23,SSE,157,5.8,8.1,34,0.00,CLR,OVC,0.00,WeatherDisplay:10.37,2013-05-14 13:02:00,
2013-05-14 09:07:00,44.4,16.4,28.20,SE,135,8.0,9.2,32,0.00,CLR,OVC,0.00,WeatherDisplay:10.37,2013-05-14 13:07:00,
2013-05-14 09:12:00,45.0,16.8,28.20,SSW,193,7.2,8.1,32,0.00,CLR,OVC,0.00,WeatherDisplay:10.37,2013-05-14 13:12:00,
2013-05-14 09:17:00,45.3,17.9,28.20,SSE,166,4.0,4.6,33,0.00,CLR,OVC,0.00,WeatherDisplay:10.37,2013-05-14 13:17:00,
2013-05-14 09:22:00,45.9,16.1,28.20,SSE,162,6.7,8.1,30,0.00,CLR,OVC,0.00,WeatherDisplay:10.37,2013-05-14 13:22:00,
2013-05-14 09:27:00,46.2,16.4,28.20,SSE,153,6.3,9.2,30,0.00,CLR,OVC,0.00,WeatherDisplay:10.37,2013-05-14 13:27:00,
2013-05-14 09:32:00,46.9,17.1,28.20,SSE,165,2.2,5.8,30,0.00,CLR,OVC,0.00,WeatherDisplay:10.37,2013-05-14 13:32:00,
2013-05-14 09:37:00,47.1,16.4,28.20,SE,146,2.7,5.8,29,0.00,CLR,OVC,0.00,WeatherDisplay:10.37,2013-05-14 13:37:00,
2013-05-14 09:42:00,48.2,17.4,28.20,SSW,194,4.0,5.8,29,0.00,CLR,OVC,0.00,WeatherDisplay:10.37,2013-05-14 13:42:00,
2013-05-14 09:47:00,48.9,17.2,28.20,South,172,4.0,4.6,28,0.00,CLR,OVC,0.00,WeatherDisplay:10.37,2013-05-14 13:47:00,
2013-05-14 09:52:00,49.8,17.1,28.23,South,190,6.3,8.1,27,0.00,CLR,OVC,0.00,WeatherDisplay:10.37,2013-05-14 13:52:00,
2013-05-14 09:57:00,50.5,17.7,28.23,SW,222,4.0,5.8,27,0.00,CLR,OVC,0.00,WeatherDisplay:10.37,2013-05-14 13:57:00,
2013-05-14 10:02:00,51.8,18.0,28.23,SSE,163,3.6,5.8,26,0.00,CLR,OVC,0.00,WeatherDisplay:10.37,2013-05-14 14:02:00,
2013-05-14 10:07:00,52.0,18.1,28.20,South,190,2.2,0.0,26,0.00,CLR,OVC,0.00,WeatherDisplay:10.37,2013-05-14 14:07:00,
2013-05-14 10:12:00,51.1,17.3,28.20,SSE,163,4.5,5.8,26,0.00,CLR,OVC,0.00,WeatherDisplay:10.37,2013-05-14 14:12:00,
2013-05-14 10:17:00,50.2,16.6,28.20,SE,126,5.4,8.1,26,0.00,CLR,OVC,0.00,WeatherDisplay:10.37,2013-05-14 14:17:00,
2013-05-14 10:22:00,51.4,17.6,28.20,SSW,206,5.8,5.8,26,0.00,CLR,OVC,0.00,WeatherDisplay:10.37,2013-05-14 14:22:00,
2013-05-14 10:27:00,51.1,17.3,28.20,SSW,205,2.7,5.8,26,0.00,CLR,OVC,0.00,WeatherDisplay:10.37,2013-05-14 14:27:00,
2013-05-14 10:32:00,51.8,18.0,28.20,West,272,2.2,3.5,26,0.00,CLR,OVC,0.00,WeatherDisplay:10.37,2013-05-14 14:32:00,
2013-05-14 10:37:00,52.5,18.6,28.20,SSW,211,4.5,5.8,26,0.00,CLR,OVC,0.00,WeatherDisplay:10.37,2013-05-14 14:37:00,
2013-05-14 10:42:00,52.5,18.6,28.20,South,173,4.0,8.1,26,0.00,CLR,OVC,0.00,WeatherDisplay:10.37,2013-05-14 14:42:00,
2013-05-14 10:47:00,52.3,18.4,28.20,South,188,0.0,3.5,26,0.00,CLR,OVC,0.00,WeatherDisplay:10.37,2013-05-14 14:47:00,
2013-05-14 10:52:00,53.1,18.1,28.20,SSW,198,4.0,5.8,25,0.00,CLR,OVC,0.00,WeatherDisplay:10.37,2013-05-14 14:52:00,
2013-05-14 10:57:00,53.6,18.6,28.20,South,184,3.1,5.8,25,0.00,CLR,OVC,0.00,WeatherDisplay:10.37,2013-05-14 14:57:00,
2013-05-14 11:02:00,53.6,18.6,28.20,SSW,207,3.1,3.5,25,0.00,CLR,OVC,0.00,WeatherDisplay:10.37,2013-05-14 15:02:00,
2013-05-14 11:07:00,54.0,18.9,28.20,SSW,195,4.0,4.6,25,0.00,CLR,OVC,0.00,WeatherDisplay:10.37,2013-05-14 15:07:00,
2013-05-14 11:12:00,54.0,16.9,28.20,SSW,200,0.0,2.3,23,0.00,CLR,OVC,0.00,WeatherDisplay:10.37,2013-05-14 15:12:00,
2013-05-14 11:17:00,54.1,17.1,28.20,SSW,209,3.6,5.8,23,0.00,CLR,OVC,0.00,WeatherDisplay:10.37,2013-05-14 15:17:00,
2013-05-14 11:22:00,54.3,17.3,28.20,SSW,211,0.0,2.3,23,0.00,CLR,OVC,0.00,WeatherDisplay:10.37,2013-05-14 15:22:00,
2013-05-14 11:27:00,55.2,17.0,28.20,NW,318,0.0,5.8,22,0.00,CLR,OVC,0.00,WeatherDisplay:10.37,2013-05-14 15:27:00,
2013-05-14 11:32:00,55.6,20.3,28.20,SSW,210,3.6,4.0,25,0.00,CLR,OVC,0.00,WeatherDisplay:10.37,2013-05-14 15:32:00,
2013-05-14 11:37:00,55.9,17.6,28.20,SSW,194,0.0,3.5,22,0.00,CLR,OVC,0.00,WeatherDisplay:10.37,2013-05-14 15:37:00,
2013-05-14 11:42:00,54.9,16.7,28.20,SE,130,0.0,2.3,22,0.00,CLR,OVC,0.00,WeatherDisplay:10.37,2013-05-14 15:42:00,
2013-05-14 11:47:00,55.4,17.1,28.20,South,183,2.7,3.5,22,0.00,CLR,OVC,0.00,WeatherDisplay:10.37,2013-05-14 15:47:00,
2013-05-14 11:52:00,54.9,16.7,28.20,SE,145,0.0,2.3,22,0.00,CLR,OVC,0.00,WeatherDisplay:10.37,2013-05-14 15:52:00,
2013-05-14 11:57:00,55.0,16.8,28.20,SSW,211,0.0,2.3,22,0.00,CLR,OVC,0.00,WeatherDisplay:10.37,2013-05-14 15:57:00,
2013-05-14 12:02:00,56.1,17.7,28.20,SSW,211,0.0,0.0,22,0.00,CLR,OVC,0.00,WeatherDisplay:10.37,2013-05-14 16:02:00,
2013-05-14 12:07:00,56.8,18.3,28.23,SSW,206,0.0,0.0,22,0.00,CLR,OVC,0.00,WeatherDisplay:10.37,2013-05-14 16:07:00,
2013-05-14 12:12:00,57.2,18.6,28.23,South,175,3.1,4.6,22,0.00,CLR,OVC,0.00,WeatherDisplay:10.37,2013-05-14 16:12:00,
2013-05-14 12:17:00,56.8,15.0,28.23,South,175,0.0,0.0,19,0.00,CLR,OVC,0.00,WeatherDisplay:10.37,2013-05-14 16:17:00,
2013-05-14 12:22:00,56.7,18.2,28.20,South,176,2.7,3.5,22,0.00,CLR,OVC,0.00,WeatherDisplay:10.37,2013-05-14 16:22:00,
2013-05-14 12:27:00,56.7,18.2,28.20,South,191,4.9,4.9,22,0.00,CLR,OVC,0.00,WeatherDisplay:10.37,2013-05-14 16:27:00,
2013-05-14 12:32:00,56.7,18.2,28.20,WSW,255,2.2,3.5,22,0.00,CLR,OVC,0.00,WeatherDisplay:10.37,2013-05-14 16:32:00,
2013-05-14 12:37:00,57.0,18.5,28.23,SW,227,0.0,2.3,22,0.00,CLR,OVC,0.00,WeatherDisplay:10.37,2013-05-14 16:37:00,
2013-05-14 12:42:00,57.2,18.6,28.23,SSW,194,2.2,3.5,22,0.00,CLR,OVC,0.00,WeatherDisplay:10.37,2013-05-14 16:42:00,
2013-05-14 12:47:00,57.6,18.9,28.23,South,171,2.7,3.5,22,0.00,CLR,OVC,0.00,WeatherDisplay:10.37,2013-05-14 16:47:00,
2013-05-14 12:52:00,57.9,15.8,28.23,West,270,0.0,0.0,19,0.00,CLR,OVC,0.00,WeatherDisplay:10.37,2013-05-14 16:52:00,
2013-05-14 12:57:00,58.1,16.0,28.23,SSW,197,0.0,2.3,19,0.00,CLR,OVC,0.00,WeatherDisplay:10.37,2013-05-14 16:57:00,
2013-05-14 13:02:00,58.3,16.1,28.23,WSW,242,2.2,3.5,19,0.00,CLR,OVC,0.00,WeatherDisplay:10.37,2013-05-14 17:02:00,
2013-05-14 13:07:00,58.6,16.4,28.23,South,183,0.0,3.5,19,0.00,CLR,OVC,0.00,WeatherDisplay:10.37,2013-05-14 17:07:00,
2013-05-14 13:12:00,58.6,16.4,28.23,SSE,165,3.1,3.5,19,0.00,CLR,OVC,0.00,WeatherDisplay:10.37,2013-05-14 17:12:00,
2013-05-14 13:17:00,58.6,16.4,28.23,SSW,200,0.0,2.3,19,0.00,CLR,OVC,0.00,WeatherDisplay:10.37,2013-05-14 17:17:00,
2013-05-14 13:22:00,58.8,16.6,28.23,South,169,2.7,4.6,19,0.00,CLR,OVC,0.00,WeatherDisplay:10.37,2013-05-14 17:22:00,
2013-05-14 13:27:00,58.5,16.3,28.23,WNW,292,3.1,5.8,19,0.00,CLR,OVC,0.00,WeatherDisplay:10.37,2013-05-14 17:27:00,
2013-05-14 13:32:00,58.8,16.6,28.23,West,273,0.0,3.5,19,0.00,CLR,OVC,0.00,WeatherDisplay:10.37,2013-05-14 17:32:00,
2013-05-14 13:37:00,59.5,17.2,28.23,SSW,197,3.6,3.6,19,0.00,CLR,OVC,0.00,WeatherDisplay:10.37,2013-05-14 17:37:00,
2013-05-14 13:42:00,59.7,17.3,28.23,SSW,207,2.7,5.8,19,0.00,CLR,OVC,0.00,WeatherDisplay:10.37,2013-05-14 17:42:00,
2013-05-14 13:47:00,60.3,17.8,28.23,SSE,162,2.2,3.5,19,0.00,CLR,OVC,0.00,WeatherDisplay:10.37,2013-05-14 17:47:00,
2013-05-14 13:52:00,61.0,18.4,28.23,WSW,249,4.0,5.8,19,0.00,CLR,OVC,0.00,WeatherDisplay:10.37,2013-05-14 17:52:00,
2013-05-14 13:57:00,61.5,18.8,28.23,West,259,4.5,5.8,19,0.00,CLR,OVC,0.00,WeatherDisplay:10.37,2013-05-14 17:57:00,
2013-05-14 14:02:00,61.9,17.9,28.23,South,183,2.7,3.5,18,0.00,CLR,OVC,0.00,WeatherDisplay:10.37,2013-05-14 18:02:00,
2013-05-14 14:07:00,62.2,18.1,28.23,East,83,2.7,3.5,18,0.00,CLR,OVC,0.00,WeatherDisplay:10.37,2013-05-14 18:07:00,
2013-05-14 14:12:00,63.0,18.7,28.23,NNW,327,0.0,0.0,18,0.00,CLR,OVC,0.00,WeatherDisplay:10.37,2013-05-14 18:12:00,
2013-05-14 14:17:00,63.0,18.7,28.23,South,183,2.2,3.5,18,0.00,CLR,OVC,0.00,WeatherDisplay:10.37,2013-05-14 18:17:00,
2013-05-14 14:22:00,63.0,18.7,28.23,SSW,195,3.6,3.6,18,0.00,CLR,OVC,0.00,WeatherDisplay:10.37,2013-05-14 18:22:00,
2013-05-14 14:27:00,62.8,18.6,28.23,SW,230,3.6,4.6,18,0.00,CLR,OVC,0.00,WeatherDisplay:10.37,2013-05-14 18:27:00,
2013-05-14 14:32:00,63.3,19.0,28.23,NNW,332,2.7,3.5,18,0.00,CLR,OVC,0.00,WeatherDisplay:10.37,2013-05-14 18:32:00,
2013-05-14 14:37:00,64.0,19.6,28.23,SSE,164,5.8,8.1,18,0.00,CLR,OVC,0.00,WeatherDisplay:10.37,2013-05-14 18:37:00,
2013-05-14 14:42:00,64.8,20.2,28.23,WSW,240,0.0,5.8,18,0.00,CLR,OVC,0.00,WeatherDisplay:10.37,2013-05-14 18:42:00,
2013-05-14 14:47:00,64.9,16.1,28.23,East,97,0.0,2.3,15,0.00,CLR,OVC,0.00,WeatherDisplay:10.37,2013-05-14 18:47:00,
2013-05-14 14:52:00,66.2,20.0,28.20,SSW,198,2.2,3.5,17,0.00,CLR,OVC,0.00,WeatherDisplay:10.37,2013-05-14 18:52:00,
2013-05-14 14:57:00,65.7,16.7,28.20,SSE,149,3.1,5.8,15,0.00,CLR,OVC,0.00,WeatherDisplay:10.37,2013-05-14 18:57:00,
2013-05-14 15:02:00,64.2,19.8,28.20,SE,124,5.4,5.8,18,0.00,CLR,OVC,0.00,WeatherDisplay:10.37,2013-05-14 19:02:00,
2013-05-14 15:07:00,65.1,20.5,28.20,SSE,159,4.5,5.8,18,0.00,CLR,OVC,0.00,WeatherDisplay:10.37,2013-05-14 19:07:00,
2013-05-14 15:12:00,64.4,15.7,28.20,SSE,151,4.0,4.6,15,0.00,CLR,OVC,0.00,WeatherDisplay:10.37,2013-05-14 19:12:00,
2013-05-14 15:17:00,64.6,15.8,28.20,East,90,2.7,3.5,15,0.00,CLR,OVC,0.00,WeatherDisplay:10.37,2013-05-14 19:17:00,
2013-05-14 15:22:00,65.8,19.8,28.20,ENE,59,2.7,5.8,17,0.00,CLR,OVC,0.00,WeatherDisplay:10.37,2013-05-14 19:22:00,
2013-05-14 15:27:00,65.8,16.8,28.20,SE,143,0.0,5.8,15,0.00,CLR,OVC,0.00,WeatherDisplay:10.37,2013-05-14 19:27:00,
2013-05-14 15:32:00,64.0,15.4,28.20,SSE,158,3.6,3.6,15,0.00,CLR,OVC,0.00,WeatherDisplay:10.37,2013-05-14 19:32:00,
2013-05-14 15:37:00,63.7,19.3,28.17,ESE,122,0.0,0.0,18,0.00,CLR,OVC,0.00,WeatherDisplay:10.37,2013-05-14 19:37:00,
2013-05-14 15:42:00,63.0,16.0,28.17,SE,146,3.6,4.6,16,0.00,CLR,OVC,0.00,WeatherDisplay:10.37,2013-05-14 19:42:00,
2013-05-14 15:47:00,64.4,19.9,28.17,South,182,5.8,8.1,18,0.00,CLR,OVC,0.00,WeatherDisplay:10.37,2013-05-14 19:47:00,
2013-05-14 15:52:00,64.6,15.8,28.17,SSE,155,3.6,5.8,15,0.00,CLR,OVC,0.00,WeatherDisplay:10.37,2013-05-14 19:52:00,
2013-05-14 15:57:00,64.6,15.8,28.17,SSE,154,4.0,5.8,15,0.00,CLR,OVC,0.00,WeatherDisplay:10.37,2013-05-14 19:57:00,
2013-05-14 16:02:00,63.3,16.3,28.17,ESE,105,4.0,4.0,16,0.00,CLR,OVC,0.00,WeatherDisplay:10.37,2013-05-14 20:02:00,
2013-05-14 16:07:00,63.5,15.0,28.17,ESE,111,0.0,4.6,15,0.00,CLR,OVC,0.00,WeatherDisplay:10.37,2013-05-14 20:07:00,
2013-05-14 16:12:00,64.9,20.4,28.17,South,180,4.5,5.8,18,0.00,CLR,OVC,0.00,WeatherDisplay:10.37,2013-05-14 20:12:00,
2013-05-14 16:17:00,66.2,17.1,28.17,East,98,4.9,5.8,15,0.00,CLR,OVC,0.00,WeatherDisplay:10.37,2013-05-14 20:17:00,
2013-05-14 16:22:00,65.8,16.8,28.17,SSW,195,5.4,9.2,15,0.00,CLR,OVC,0.00,WeatherDisplay:10.37,2013-05-14 20:22:00,
2013-05-14 16:27:00,65.3,16.4,28.17,SE,143,5.8,9.2,15,0.00,CLR,OVC,0.00,WeatherDisplay:10.37,2013-05-14 20:27:00,
2013-05-14 16:32:00,64.6,15.8,28.17,South,175,4.9,4.9,15,0.00,CLR,OVC,0.00,WeatherDisplay:10.37,2013-05-14 20:32:00,
2013-05-14 16:37:00,64.6,15.8,28.14,South,186,8.0,8.1,15,0.00,CLR,OVC,0.00,WeatherDisplay:10.37,2013-05-14 20:37:00,
2013-05-14 16:42:00,64.2,15.5,28.14,SSE,154,8.0,10.4,15,0.00,CLR,OVC,0.00,WeatherDisplay:10.37,2013-05-14 20:42:00,
2013-05-14 16:47:00,64.6,15.8,28.14,SSW,194,8.0,8.0,15,0.00,CLR,OVC,0.00,WeatherDisplay:10.37,2013-05-14 20:47:00,
2013-05-14 16:52:00,64.6,15.8,28.14,SE,128,6.7,8.1,15,0.00,CLR,OVC,0.00,WeatherDisplay:10.37,2013-05-14 20:52:00,
2013-05-14 16:57:00,66.2,20.0,28.14,South,186,5.4,5.8,17,0.00,CLR,OVC,0.00,WeatherDisplay:10.37,2013-05-14 20:57:00,
2013-05-14 17:02:00,66.6,17.4,28.14,SE,143,8.0,12.7,15,0.00,CLR,OVC,0.00,WeatherDisplay:10.37,2013-05-14 21:02:00,
2013-05-14 17:07:00,66.6,17.4,28.14,SE,146,4.9,12.7,15,0.00,CLR,OVC,0.00,WeatherDisplay:10.37,2013-05-14 21:07:00,
2013-05-14 17:12:00,66.4,17.3,28.14,South,187,6.3,6.3,15,0.00,CLR,OVC,0.00,WeatherDisplay:10.37,2013-05-14 21:12:00,
2013-05-14 17:17:00,66.9,17.7,28.14,South,172,9.2,12.7,15,0.00,CLR,OVC,0.00,WeatherDisplay:10.37,2013-05-14 21:17:00,
2013-05-14 17:22:00,65.5,16.5,28.14,SSE,158,8.3,12.7,15,0.00,CLR,OVC,0.00,WeatherDisplay:10.37,2013-05-14 21:22:00,
2013-05-14 17:27:00,65.8,16.8,28.14,SE,129,5.8,5.8,15,0.00,CLR,OVC,0.00,WeatherDisplay:10.37,2013-05-14 21:27:00,
2013-05-14 17:32:00,66.0,17.0,28.14,South,177,4.0,10.4,15,0.00,CLR,OVC,0.00,WeatherDisplay:10.37,2013-05-14 21:32:00,
2013-05-14 17:37:00,66.0,17.0,28.11,South,188,7.2,8.1,15,0.00,CLR,OVC,0.00,WeatherDisplay:10.37,2013-05-14 21:37:00,
2013-05-14 17:42:00,66.4,17.3,28.11,SE,131,6.3,8.1,15,0.00,CLR,OVC,0.00,WeatherDisplay:10.37,2013-05-14 21:42:00,
2013-05-14 17:47:00,66.7,17.6,28.11,SSE,166,10.1,11.5,15,0.00,CLR,OVC,0.00,WeatherDisplay:10.37,2013-05-14 21:47:00,
2013-05-14 17:52:00,66.6,17.4,28.11,South,176,7.2,11.5,15,0.00,CLR,OVC,0.00,WeatherDisplay:10.37,2013-05-14 21:52:00,
2013-05-14 17:57:00,66.9,17.7,28.11,South,184,6.7,9.2,15,0.00,CLR,OVC,0.00,WeatherDisplay:10.37,2013-05-14 21:57:00,
2013-05-14 18:02:00,66.0,17.0,28.11,SSE,158,5.4,8.1,15,0.00,CLR,OVC,0.00,WeatherDisplay:10.37,2013-05-14 22:02:00,
2013-05-14 18:07:00,66.6,17.4,28.11,South,178,7.6,10.4,15,0.00,CLR,OVC,0.00,WeatherDisplay:10.37,2013-05-14 22:07:00,
2013-05-14 18:12:00,66.6,17.4,28.11,South,173,6.7,9.2,15,0.00,CLR,OVC,0.00,WeatherDisplay:10.37,2013-05-14 22:12:00,
2013-05-14 18:17:00,67.1,17.8,28.11,SSW,194,7.6,10.4,15,0.00,CLR,OVC,0.00,WeatherDisplay:10.37,2013-05-14 22:17:00,
2013-05-14 18:22:00,66.7,17.6,28.08,SSW,195,8.7,12.7,15,0.00,CLR,OVC,0.00,WeatherDisplay:10.37,2013-05-14 22:22:00,
2013-05-14 18:27:00,65.8,16.8,28.08,SSE,158,6.3,6.9,15,0.00,CLR,OVC,0.00,WeatherDisplay:10.37,2013-05-14 22:27:00,
2013-05-14 18:32:00,65.1,16.3,28.08,SSE,155,4.9,10.4,15,0.00,CLR,OVC,0.00,WeatherDisplay:10.37,2013-05-14 22:32:00,
2013-05-14 18:37:00,64.6,15.8,28.08,SE,126,4.9,8.1,15,0.00,CLR,OVC,0.00,WeatherDisplay:10.37,2013-05-14 22:37:00,
2013-05-14 18:42:00,64.0,15.4,28.08,SSE,159,8.0,12.7,15,0.00,CLR,OVC,0.00,WeatherDisplay:10.37,2013-05-14 22:42:00,
2013-05-14 18:47:00,63.9,15.2,28.08,SE,139,6.3,12.7,15,0.00,CLR,OVC,0.00,WeatherDisplay:10.37,2013-05-14 22:47:00,
2013-05-14 18:52:00,64.4,15.7,28.08,SSE,162,7.2,7.2,15,0.00,CLR,OVC,0.00,WeatherDisplay:10.37,2013-05-14 22:52:00,
2013-05-14 18:57:00,64.6,15.8,28.08,SE,144,7.2,9.2,15,0.00,CLR,OVC,0.00,WeatherDisplay:10.37,2013-05-14 22:57:00,
2013-05-14 19:02:00,64.4,15.7,28.08,South,172,6.7,9.2,15,0.00,CLR,OVC,0.00,WeatherDisplay:10.37,2013-05-14 23:02:00,
2013-05-14 19:07:00,64.0,15.4,28.05,SSW,210,8.7,9.2,15,0.00,CLR,OVC,0.00,WeatherDisplay:10.37,2013-05-14 23:07:00,
2013-05-14 19:12:00,63.3,16.3,28.05,SE,130,9.6,12.7,16,0.00,CLR,OVC,0.00,WeatherDisplay:10.37,2013-05-14 23:12:00,
2013-05-14 19:17:00,63.7,15.1,28.05,SSW,192,5.8,5.8,15,0.00,CLR,OVC,0.00,WeatherDisplay:10.37,2013-05-14 23:17:00,
2013-05-14 19:22:00,64.2,15.5,28.08,ESE,110,7.6,15.0,15,0.00,CLR,OVC,0.00,WeatherDisplay:10.37,2013-05-14 23:22:00,
2013-05-14 19:27:00,64.4,15.7,28.08,South,191,7.2,8.1,15,0.00,CLR,OVC,0.00,WeatherDisplay:10.37,2013-05-14 23:27:00,
2013-05-14 19:32:00,63.9,15.2,28.08,South,171,5.4,5.8,15,0.00,CLR,OVC,0.00,WeatherDisplay:10.37,2013-05-14 23:32:00,
2013-05-14 19:37:00,64.2,15.5,28.05,SSE,165,8.0,8.1,15,0.00,CLR,OVC,0.00,WeatherDisplay:10.37,2013-05-14 23:37:00,
2013-05-14 19:42:00,63.1,16.2,28.05,SSW,201,8.3,10.4,16,0.00,CLR,OVC,0.00,WeatherDisplay:10.37,2013-05-14 23:42:00,
2013-05-14 19:47:00,62.2,15.4,28.05,South,186,4.9,12.7,16,0.00,CLR,OVC,0.00,WeatherDisplay:10.37,2013-05-14 23:47:00,
2013-05-14 19:52:00,61.7,15.0,28.05,SE,145,5.8,10.4,16,0.00,CLR,OVC,0.00,WeatherDisplay:10.37,2013-05-14 23:52:00,
2013-05-14 19:57:00,61.2,14.5,28.05,South,173,9.2,10.4,16,0.00,CLR,OVC,0.00,WeatherDisplay:10.37,2013-05-14 23:57:00,
2013-05-14 20:02:00,60.6,14.1,28.05,SE,140,5.8,9.2,16,0.00,CLR,OVC,0.00,WeatherDisplay:10.37,2013-05-15 00:02:00,
2013-05-14 20:07:00,60.3,17.8,28.05,SSE,168,7.6,8.1,19,0.00,CLR,OVC,0.00,WeatherDisplay:10.37,2013-05-15 00:07:00,
2013-05-14 20:12:00,59.9,17.5,28.05,South,187,5.8,12.7,19,0.00,CLR,OVC,0.00,WeatherDisplay:10.37,2013-05-15 00:12:00,
2013-05-14 20:17:00,59.2,16.9,28.05,SSE,153,8.7,12.7,19,0.00,CLR,OVC,0.00,WeatherDisplay:10.37,2013-05-15 00:17:00,
2013-05-14 20:22:00,58.8,16.6,28.02,South,174,7.6,9.2,19,0.00,CLR,OVC,0.00,WeatherDisplay:10.37,2013-05-15 00:22:00,
2013-05-14 20:27:00,58.3,16.1,28.02,SE,145,7.6,9.2,19,0.00,CLR,OVC,0.00,WeatherDisplay:10.37,2013-05-15 00:27:00,
2013-05-14 20:32:00,58.1,16.0,28.02,SSW,196,8.7,12.7,19,0.00,CLR,OVC,0.00,WeatherDisplay:10.37,2013-05-15 00:32:00,
2013-05-14 20:37:00,57.7,15.7,28.02,South,169,8.7,11.5,19,0.00,CLR,OVC,0.00,WeatherDisplay:10.37,2013-05-15 00:37:00,
2013-05-14 20:42:00,57.4,15.4,28.02,SSE,152,5.8,5.8,19,0.00,CLR,OVC,0.00,WeatherDisplay:10.37,2013-05-15 00:42:00,
2013-05-14 20:47:00,57.2,15.2,28.02,SSE,159,3.6,8.1,19,0.00,CLR,OVC,0.00,WeatherDisplay:10.37,2013-05-15 00:47:00,
2013-05-14 20:52:00,56.7,14.8,28.02,SSE,160,6.7,8.1,19,0.00,CLR,OVC,0.00,WeatherDisplay:10.37,2013-05-15 00:52:00,
2013-05-14 20:57:00,56.3,14.5,28.02,South,169,6.3,10.4,19,0.00,CLR,OVC,0.00,WeatherDisplay:10.37,2013-05-15 00:57:00,
2013-05-14 21:02:00,55.9,15.4,28.02,SSE,167,7.2,12.7,20,0.00,CLR,OVC,0.00,WeatherDisplay:10.37,2013-05-15 01:02:00,
2013-05-14 21:07:00,55.8,15.2,28.02,SSW,199,8.0,8.0,20,0.00,CLR,OVC,0.00,WeatherDisplay:10.37,2013-05-15 01:07:00,
2013-05-14 21:12:00,55.4,14.9,28.02,South,176,8.3,8.3,20,0.00,CLR,OVC,0.00,WeatherDisplay:10.37,2013-05-15 01:12:00,
2013-05-14 21:17:00,55.0,16.8,28.02,South,184,4.5,8.1,22,0.00,CLR,OVC,0.00,WeatherDisplay:10.37,2013-05-15 01:17:00,
2013-05-14 21:22:00,54.5,16.4,28.02,South,189,8.3,12.7,22,0.00,CLR,OVC,0.00,WeatherDisplay:10.37,2013-05-15 01:22:00,
2013-05-14 21:27:00,54.1,17.1,28.02,South,178,8.3,10.4,23,0.00,CLR,OVC,0.00,WeatherDisplay:10.37,2013-05-15 01:27:00,
2013-05-14 21:32:00,53.8,16.8,28.02,SSW,203,8.3,12.7,23,0.00,CLR,OVC,0.00,WeatherDisplay:10.37,2013-05-15 01:32:00,
2013-05-14 21:37:00,53.2,18.3,28.02,SSE,162,3.6,3.6,25,0.00,CLR,OVC,0.00,WeatherDisplay:10.37,2013-05-15 01:37:00,
2013-05-14 21:42:00,52.5,18.6,28.02,SE,137,4.5,5.8,26,0.00,CLR,OVC,0.00,WeatherDisplay:10.37,2013-05-15 01:42:00,
2013-05-14 21:47:00,52.2,18.3,28.02,SSE,167,5.8,8.1,26,0.00,CLR,OVC,0.00,WeatherDisplay:10.37,2013-05-15 01:47:00,
2013-05-14 21:52:00,51.4,17.6,28.02,South,172,3.6,8.1,26,0.00,CLR,OVC,0.00,WeatherDisplay:10.37,2013-05-15 01:52:00,
2013-05-14 21:57:00,51.1,17.3,28.02,South,176,5.4,6.9,26,0.00,CLR,OVC,0.00,WeatherDisplay:10.37,2013-05-15 01:57:00,
2013-05-14 22:02:00,50.7,17.9,28.02,SSE,149,5.4,5.8,27,0.00,CLR,OVC,0.00,WeatherDisplay:10.37,2013-05-15 02:02:00,
2013-05-14 22:07:00,50.4,17.6,28.02,SSE,150,3.6,5.8,27,0.00,CLR,OVC,0.00,WeatherDisplay:10.37,2013-05-15 02:07:00,
2013-05-14 22:12:00,49.6,17.0,28.02,South,170,4.0,7.6,27,0.00,CLR,OVC,0.00,WeatherDisplay:10.37,2013-05-15 02:12:00,
2013-05-14 22:17:00,49.3,16.7,28.02,SE,132,4.0,8.1,27,0.00,CLR,OVC,0.00,WeatherDisplay:10.37,2013-05-15 02:17:00,
2013-05-14 22:22:00,49.1,17.3,28.02,SSE,168,3.6,5.8,28,0.00,CLR,OVC,0.00,WeatherDisplay:10.37,2013-05-15 02:22:00,
2013-05-14 22:27:00,48.7,17.0,28.02,South,179,5.4,8.1,28,0.00,CLR,OVC,0.00,WeatherDisplay:10.37,2013-05-15 02:27:00,
2013-05-14 22:32:00,48.4,17.5,28.02,SSE,163,4.0,4.0,29,0.00,CLR,OVC,0.00,WeatherDisplay:10.37,2013-05-15 02:32:00,
2013-05-14 22:37:00,48.0,17.2,28.02,SSE,162,5.4,5.8,29,0.00,CLR,OVC,0.00,WeatherDisplay:10.37,2013-05-15 02:37:00,
2013-05-14 22:42:00,47.8,17.9,28.02,South,184,3.6,5.8,30,0.00,CLR,OVC,0.00,WeatherDisplay:10.37,2013-05-15 02:42:00,
2013-05-14 22:47:00,47.7,17.7,28.02,SSE,158,5.4,5.8,30,0.00,CLR,OVC,0.00,WeatherDisplay:10.37,2013-05-15 02:47:00,
2013-05-14 22:52:00,47.3,18.1,28.02,South,189,4.0,5.8,31,0.00,CLR,OVC,0.00,WeatherDisplay:10.37,2013-05-15 02:52:00,
2013-05-14 22:57:00,46.9,17.8,28.02,South,179,2.7,3.5,31,0.00,CLR,OVC,0.00,WeatherDisplay:10.37,2013-05-15 02:57:00,
2013-05-14 23:02:00,46.6,19.0,28.02,South,183,3.6,5.8,33,0.00,CLR,OVC,0.00,WeatherDisplay:10.37,2013-05-15 03:02:00,
2013-05-14 23:07:00,46.4,19.5,28.02,South,183,4.0,5.8,34,0.00,CLR,OVC,0.00,WeatherDisplay:10.37,2013-05-15 03:07:00,
2013-05-14 23:12:00,46.4,19.5,28.02,South,180,4.9,5.8,34,0.00,CLR,OVC,0.00,WeatherDisplay:10.37,2013-05-15 03:12:00,
2013-05-14 23:17:00,46.2,19.4,28.02,SSW,210,4.0,5.8,34,0.00,CLR,OVC,0.00,WeatherDisplay:10.37,2013-05-15 03:17:00,
2013-05-14 23:22:00,46.2,20.0,27.99,South,182,3.6,5.8,35,0.00,CLR,OVC,0.00,WeatherDisplay:10.37,2013-05-15 03:22:00,
2013-05-14 23:27:00,46.0,19.9,27.99,SSE,163,3.6,6.9,35,0.00,CLR,OVC,0.00,WeatherDisplay:10.37,2013-05-15 03:27:00,
2013-05-14 23:32:00,46.0,20.5,27.99,South,182,4.0,5.4,36,0.00,CLR,OVC,0.00,WeatherDisplay:10.37,2013-05-15 03:32:00,
2013-05-14 23:37:00,46.0,20.5,27.99,South,190,2.7,3.5,36,0.00,CLR,OVC,0.00,WeatherDisplay:10.37,2013-05-15 03:37:00,
2013-05-14 23:42:00,46.0,20.5,27.99,South,177,4.5,5.8,36,0.00,CLR,OVC,0.00,WeatherDisplay:10.37,2013-05-15 03:42:00,
2013-05-14 23:47:00,46.2,20.7,27.99,SSW,201,5.8,5.8,36,0.00,CLR,OVC,0.00,WeatherDisplay:10.37,2013-05-15 03:47:00,
2013-05-14 23:52:00,46.0,20.5,27.97,SSE,165,3.1,8.1,36,0.00,CLR,OVC,0.00,WeatherDisplay:10.37,2013-05-15 03:52:00,
2013-05-14 23:57:00,46.0,20.5,27.97,South,169,4.5,5.8,36,0.00,CLR,OVC,0.00,WeatherDisplay:10.37,2013-05-15 03:57:00,